Stündliche Wetter Cecele

Heute, 26 Januar, Dienstag

Zeit Temperatur Niederschläge Wind Luftdruck Luftfeuchtigkeit
00:00 -4°C° 0.5 mm 8 m/S 734 mmHg 96%
01:00 -4°C° 0.5 mm 8 m/S 734 mmHg 96%
02:00 -4°C° 0.5 mm 9 m/S 734 mmHg 95%
03:00 -4°C° 0.3 mm 8 m/S 735 mmHg 95%
04:00 -4°C° 0.3 mm 8 m/S 735 mmHg 95%
05:00 -4°C° 0.3 mm 8 m/S 735 mmHg 95%
06:00 -4°C° 0.2 mm 8 m/S 735 mmHg 94%
07:00 -4°C° 0.2 mm 8 m/S 736 mmHg 93%
08:00 -4°C° 0.2 mm 9 m/S 736 mmHg 92%
09:00 -4°C° 0 mm 9 m/S 736 mmHg 91%
10:00 -4°C° 0 mm 9 m/S 736 mmHg 90%
11:00 -4°C° 0 mm 9 m/S 736 mmHg 90%
12:00 -4°C° 0 mm 9 m/S 737 mmHg 90%
13:00 -4°C° 0 mm 9 m/S 737 mmHg 89%
14:00 -4°C° 0 mm 9 m/S 737 mmHg 89%
15:00 -4°C° 0 mm 9 m/S 738 mmHg 89%
16:00 -4°C° 0 mm 9 m/S 738 mmHg 89%
17:00 -4°C° 0 mm 8 m/S 738 mmHg 89%
18:00 -5°C° 0 mm 8 m/S 739 mmHg 90%
19:00 -5°C° 0 mm 8 m/S 739 mmHg 90%
20:00 -5°C° 0 mm 8 m/S 739 mmHg 91%
21:00 -5°C° 0 mm 8 m/S 739 mmHg 91%
22:00 -4°C° 0 mm 7 m/S 740 mmHg 91%
23:00 -4°C° 0 mm 7 m/S 740 mmHg 91%

Morgen, 27 Januar, Mittwoch

Zeit Temperatur Niederschläge Wind Luftdruck Luftfeuchtigkeit
00:00 -4°C° 0 mm 7 m/S 740 mmHg 90%
01:00 -4°C° 0 mm 6 m/S 740 mmHg 90%
02:00 -4°C° 0 mm 6 m/S 740 mmHg 90%
03:00 -4°C° 0 mm 6 m/S 740 mmHg 91%
04:00 -4°C° 0 mm 6 m/S 740 mmHg 92%
05:00 -4°C° 0 mm 6 m/S 740 mmHg 92%
06:00 -4°C° 0 mm 5 m/S 741 mmHg 93%
07:00 -5°C° 0 mm 5 m/S 741 mmHg 93%
08:00 -5°C° 0 mm 5 m/S 742 mmHg 94%
09:00 -5°C° 0.1 mm 5 m/S 742 mmHg 93%
10:00 -4°C° 0.1 mm 5 m/S 742 mmHg 92%
11:00 -4°C° 0.1 mm 5 m/S 742 mmHg 91%
12:00 -4°C° 0 mm 5 m/S 742 mmHg 90%
13:00 -2°C° 0 mm 5 m/S 742 mmHg 90%
14:00 -2°C° 0 mm 5 m/S 742 mmHg 89%
15:00 -2°C° 0 mm 4 m/S 743 mmHg 90%
16:00 -3°C° 0 mm 4 m/S 743 mmHg 91%
17:00 -3°C° 0 mm 4 m/S 743 mmHg 91%
18:00 -4°C° 0 mm 4 m/S 743 mmHg 91%
19:00 -4°C° 0 mm 3 m/S 743 mmHg 92%
20:00 -5°C° 0 mm 3 m/S 743 mmHg 92%
21:00 -5°C° 0 mm 3 m/S 743 mmHg 93%
22:00 -5°C° 0 mm 2 m/S 743 mmHg 94%
23:00 -5°C° 0 mm 2 m/S 743 mmHg 96%

übermorgen, 28 Januar, Donnerstag

Zeit Temperatur Niederschläge Wind Luftdruck Luftfeuchtigkeit
00:00 -4°C° 0 mm 2 m/S 743 mmHg 96%
01:00 -4°C° 0 mm 2 m/S 743 mmHg 96%
02:00 -3°C° 0 mm 2 m/S 743 mmHg 97%
03:00 -3°C° 0 mm 2 m/S 743 mmHg 97%
04:00 -3°C° 0 mm 2 m/S 743 mmHg 96%
05:00 -4°C° 0 mm 3 m/S 742 mmHg 96%
06:00 -3°C° 0 mm 2 m/S 742 mmHg 95%
07:00 -4°C° 0 mm 2 m/S 742 mmHg 95%
08:00 -5°C° 0 mm 2 m/S 741 mmHg 95%
09:00 -4°C° 0 mm 2 m/S 741 mmHg 94%
10:00 -4°C° 0 mm 2 m/S 740 mmHg 93%
11:00 -3°C° 0 mm 2 m/S 740 mmHg 92%
12:00 -4°C° 0 mm 3 m/S 739 mmHg 91%
13:00 -3°C° 0 mm 4 m/S 738 mmHg 89%
14:00 -4°C° 0 mm 5 m/S 738 mmHg 88%
15:00 -4°C° 0.3 mm 5 m/S 737 mmHg 91%
16:00 -4°C° 0.3 mm 5 m/S 737 mmHg 93%
17:00 -4°C° 0.3 mm 5 m/S 736 mmHg 96%
18:00 -4°C° 0.1 mm 4 m/S 736 mmHg 94%
19:00 -5°C° 0.1 mm 4 m/S 735 mmHg 91%
20:00 -7°C° 0.1 mm 4 m/S 735 mmHg 89%
21:00 -7°C° 0 mm 4 m/S 735 mmHg 90%
22:00 -7°C° 0 mm 3 m/S 735 mmHg 91%
23:00 -8°C° 0 mm 3 m/S 734 mmHg 92%

29 Januar, Freitag

Zeit Temperatur Niederschläge Wind Luftdruck Luftfeuchtigkeit
00:00 -8°C° 0 mm 3 m/S 734 mmHg 92%
01:00 -8°C° 0 mm 3 m/S 733 mmHg 92%
02:00 -8°C° 0 mm 3 m/S 733 mmHg 92%
03:00 -8°C° 0.1 mm 4 m/S 733 mmHg 93%
04:00 -8°C° 0.1 mm 4 m/S 732 mmHg 94%
05:00 -8°C° 0.1 mm 5 m/S 732 mmHg 95%
06:00 -8°C° 0.2 mm 5 m/S 731 mmHg 95%
07:00 -7°C° 0.2 mm 5 m/S 731 mmHg 95%
08:00 -8°C° 0.2 mm 6 m/S 731 mmHg 95%
09:00 -6°C° 0.3 mm 6 m/S 731 mmHg 94%
10:00 -7°C° 0.3 mm 7 m/S 731 mmHg 93%
11:00 -6°C° 0.3 mm 8 m/S 731 mmHg 91%
12:00 -6°C° 0.1 mm 7 m/S 731 mmHg 90%
13:00 -6°C° 0.1 mm 7 m/S 731 mmHg 89%
14:00 -5°C° 0.1 mm 6 m/S 731 mmHg 87%
15:00 -5°C° 0.1 mm 5 m/S 732 mmHg 90%
16:00 -4°C° 0.1 mm 4 m/S 732 mmHg 93%
17:00 -4°C° 0.1 mm 3 m/S 732 mmHg 96%
18:00 -5°C° 0.3 mm 3 m/S 732 mmHg 95%
19:00 -6°C° 0.3 mm 3 m/S 732 mmHg 94%
20:00 -7°C° 0.3 mm 3 m/S 733 mmHg 93%
21:00 -8°C° 0 mm 4 m/S 733 mmHg 93%
22:00 -8°C° 0 mm 4 m/S 733 mmHg 94%
23:00 -8°C° 0 mm 4 m/S 733 mmHg 94%

30 Januar, Samstag

Zeit Temperatur Niederschläge Wind Luftdruck Luftfeuchtigkeit
00:00 -8°C° 0 mm 4 m/S 733 mmHg 94%
01:00 -7°C° 0 mm 5 m/S 733 mmHg 94%
02:00 -7°C° 0 mm 5 m/S 733 mmHg 94%
03:00 -7°C° 0 mm 5 m/S 733 mmHg 94%
04:00 -7°C° 0 mm 5 m/S 733 mmHg 95%
05:00 -7°C° 0 mm 5 m/S 733 mmHg 95%
06:00 -7°C° 0.4 mm 5 m/S 734 mmHg 95%
07:00 -7°C° 0.4 mm 5 m/S 734 mmHg 95%
08:00 -7°C° 0.4 mm 5 m/S 734 mmHg 95%
09:00 -6°C° 0.2 mm 5 m/S 734 mmHg 94%
10:00 -5°C° 0.2 mm 4 m/S 735 mmHg 93%
11:00 -5°C° 0.2 mm 4 m/S 735 mmHg 92%
12:00 -6°C° 0.1 mm 5 m/S 735 mmHg 89%
13:00 -6°C° 0.1 mm 5 m/S 735 mmHg 86%
14:00 -6°C° 0.1 mm 5 m/S 735 mmHg 83%
15:00 -6°C° 0 mm 5 m/S 735 mmHg 85%
16:00 -7°C° 0 mm 4 m/S 735 mmHg 88%
17:00 -7°C° 0 mm 3 m/S 735 mmHg 90%
18:00 -8°C° 0 mm 3 m/S 736 mmHg 90%
19:00 -8°C° 0 mm 3 m/S 736 mmHg 91%
20:00 -8°C° 0 mm 3 m/S 736 mmHg 91%
21:00 -9°C° 0 mm 3 m/S 736 mmHg 93%
22:00 -9°C° 0 mm 3 m/S 736 mmHg 94%
23:00 -9°C° 0 mm 3 m/S 736 mmHg 96%

31 Januar, Sonntag

Zeit Temperatur Niederschläge Wind Luftdruck Luftfeuchtigkeit
00:00 -9°C° 0 mm 3 m/S 736 mmHg 95%
01:00 -11°C° 0 mm 4 m/S 737 mmHg 93%
02:00 -11°C° 0 mm 4 m/S 737 mmHg 92%
03:00 -11°C° 0 mm 4 m/S 737 mmHg 93%
04:00 -11°C° 0 mm 5 m/S 737 mmHg 93%
05:00 -11°C° 0 mm 5 m/S 737 mmHg 93%
06:00 -11°C° 0 mm 5 m/S 737 mmHg 93%
07:00 -10°C° 0 mm 5 m/S 738 mmHg 93%
08:00 -10°C° 0 mm 5 m/S 738 mmHg 93%
09:00 -8°C° 0 mm 5 m/S 738 mmHg 92%
10:00 -9°C° 0 mm 6 m/S 738 mmHg 91%
11:00 -8°C° 0 mm 6 m/S 738 mmHg 90%
12:00 -8°C° 0.1 mm 7 m/S 738 mmHg 90%
13:00 -7°C° 0.1 mm 7 m/S 738 mmHg 90%
14:00 -7°C° 0.1 mm 7 m/S 738 mmHg 89%
15:00 -7°C° 0.1 mm 7 m/S 738 mmHg 90%
16:00 -6°C° 0.1 mm 6 m/S 738 mmHg 91%
17:00 -8°C° 0.1 mm 6 m/S 738 mmHg 92%
18:00 -7°C° 0 mm 5 m/S 738 mmHg 92%
19:00 -7°C° 0 mm 5 m/S 738 mmHg 92%
20:00 -8°C° 0 mm 5 m/S 738 mmHg 93%
21:00 -8°C° 0 mm 4 m/S 738 mmHg 93%
22:00 -8°C° 0 mm 4 m/S 738 mmHg 93%
23:00 -9°C° 0 mm 4 m/S 739 mmHg 92%
Mehr zeigen

Wir brauchen deine Erlaubnis

Meteoprog und unser Service Anbieter werden persönliche Daten aufbewahren, so wie Cookies, Geräte Bezeichnung oder ähnliche Technologien von deinem Gerät und Prozess, so wie Persönliche Daten Inhalte und Werbungen, genauso wie social Media und den Verkehr zu analysieren.

  • Aufbewahrung und/oder Zugang zu deiner Geräte Informationen.

    Cookies, Geräte Bezeichnung oder andere Informationen, können aufbewahrt oder Zugang zu deinem Gerät erhalten, für den Grund, der oben angegeben wird.

  • Personalisierte Werbung und Inhalte, Messungen, Einblick in das Publikum und Produkt Entwicklung.

    Werbungen und Inhalte können personalisiert werden, basierend auf ein Profil. Mehr Daten können besser personalisierte Werbungen und Inhalte hinzufügen. Werbung und Inhalte können gezeigt und gemessen werden. Einblicke über das Publikum, welche die Werbung gesehen haben und den Inhalt, können abgeleitet werden. So wie Daten können genutzt werden, um es zu verbessern oder die Benutzer Erfahrung zu verbessern das System und die Software.

Wenn du “Ich stimme zu” klickst, erlaubst du uns, die Cookies zu benutzen die Geräte Bezeichnung, den Web oder ähnliche Technologien zu benutzen. Deine Settings, können in deinem Gerät bei deinem Browser geändert werden.

Für den bestimmten Zweck, berechtigten Interessen beruhen darauf, mehr als auf den Inhalt. Du kannst mehr darüber in unseren Privaten und Cookie Politik lesen.